Location: Newark
(25.4800°N, 85.7200°E)
Time: 06:57:30
(UTC+00:00)

Vanguard 1 Rocket - Visible Passes

Search period start: 20 October 2020 00:00
Search period end: 30 October 2020 00:00
Orbit: 656 x 4221 km, 34.3° (Epoch: 19 October)

Date Brightness Start Highest point End Pass type
(mag) Time Alt. Az. Time Alt. Az. Time Alt. Az.
20 Oct 9.5 12:15:31 10° WNW 12:25:05 72° SSW 12:44:21 10° SE visible
20 Oct 10.9 14:42:45 10° W 14:55:08 31° SSW 15:14:11 10° SSE visible
21 Oct 10.4 13:30:18 10° W 13:41:19 43° SSW 14:00:49 10° SSE visible
21 Oct 11.6 16:03:55 10° WSW 16:13:05 15° SW 16:24:13 10° S visible
22 Oct 9.8 12:18:56 10° WNW 12:28:13 58° SSW 12:46:25 10° SE visible
22 Oct 11.2 14:47:28 10° WSW 14:58:28 23° SSW 15:14:19 10° S visible
23 Oct 10.7 13:34:15 10° W 13:44:35 33° SSW 14:01:50 10° SSE visible
24 Oct 10.1 12:22:31 10° W 12:31:26 46° SSW 12:48:08 10° SE visible
24 Oct 11.5 14:53:20 10° WSW 15:02:00 16° SSW 15:13:22 10° S visible
25 Oct 11.0 13:38:43 10° W 13:48:00 25° SSW 14:02:17 10° SSE visible
26 Oct 10.4 12:26:22 10° W 12:34:46 34° SSW 12:49:28 10° SSE visible
26 Oct 11.7 15:03:33 10° SW 15:05:49 10° SSW 15:08:13 10° SSW visible
27 Oct 11.3 13:44:06 10° WSW 13:51:34 17° SSW 14:01:49 10° S visible
28 Oct 10.8 12:30:39 10° W 12:38:14 25° SSW 12:50:17 10° SSE visible
28 Oct 11.3 23:13:24 10° SSE 23:14:46 10° SSE 23:16:02 10° SSE visible
29 Oct 11.6 13:52:46 10° SW 13:55:20 11° SSW 13:58:10 10° SSW visible
